Morganton, NC

10:29 AM EDT on June 22, 2017 (GMT -0400)
Morganton-Lenoir

Weather History for KMRN - November, 2013

Change the Weather History Date:

Wednesday, November 20, 2013

  Actual Average (KHKY) Record (KHKY)
Temperature  
Mean Temperature 41 °F -  
Max Temperature 51 °F 58 °F 76 °F (1979)
Min Temperature 31 °F 38 °F 19 °F (1951)
Degree Days  
Heating Degree Days 24    
Moisture  
Dew Point 28 °F    
Average Humidity 64    
Maximum Humidity 93    
Minimum Humidity 36    
Precipitation  
Precipitation 0.00 in - - ()
Sea Level Pressure  
Sea Level Pressure 30.42 in    
Wind  
Wind Speed 4 mph (NNE)    
Max Wind Speed 8 mph    
Max Gust Speed -    
Visibility 10 miles    
Events      
Averages and records for this station are not official NWS values.
T = Trace of Precipitation, MM = Missing Value Source: NWS Daily Summary

Daily Weather History Graph

Daily Weather History Graph

Search for Another Location

Airport or City:

Trip Planner

Search our weather history database for the weather conditions in past years. The results will help you decide how hot, cold, wet, or windy it might be!

Date:

Astronomy

Nov. 20, 2013 Rise Set
Actual Time 7:07 AM EST 5:16 PM EST
Civil Twilight 6:40 AM EST 5:43 PM EST
Nautical Twilight 6:09 AM EST 6:14 PM EST
Astronomical Twilight 5:38 AM EST 6:45 PM EST
Moon 7:57 PM EST (11/20) 9:31 AM EST (11/20)
Length of Visible Light 11h 03m
Length of Day
10h 08m
Waning Gibbous, 91% of the Moon is Illuminated
Nov 20
Waning Gibbous
Nov 25
Last Quarter
Dec 2
New
Dec 9
First Quarter
Dec 17
Full

Hourly Weather History & Observations

Time (EST) Temp. Windchill Dew Point Humidity Pressure Visibility Wind Dir Wind Speed Gust Speed Precip Events Conditions
12:15 AM 41.4 °F 39.4 °F 27.5 °F 58% 30.32 in 10.0 mi North 3.5 mph - N/A   Clear
12:35 AM 40.5 °F - 28.9 °F 64% 30.32 in 10.0 mi Calm Calm - N/A   Clear
12:55 AM 40.5 °F 37.3 °F 28.4 °F 62% 30.33 in 10.0 mi North 4.6 mph - N/A   Clear
1:15 AM 39.6 °F 37.4 °F 28.6 °F 65% 30.32 in 10.0 mi North 3.5 mph - N/A   Clear
1:35 AM 39.2 °F 37.0 °F 28.0 °F 64% 30.33 in 10.0 mi NNE 3.5 mph - N/A   Clear
1:55 AM 38.1 °F 35.7 °F 28.2 °F 68% 30.33 in 10.0 mi North 3.5 mph - N/A   Clear
2:15 AM 39.2 °F 37.0 °F 27.5 °F 63% 30.34 in 10.0 mi North 3.5 mph - N/A   Clear
2:35 AM 39.2 °F 37.0 °F 28.2 °F 65% 30.36 in 10.0 mi North 3.5 mph - N/A   Clear
2:55 AM 37.8 °F 35.3 °F 28.6 °F 69% 30.36 in 10.0 mi NNE 3.5 mph - N/A   Clear
3:15 AM 39.2 °F 35.9 °F 27.5 °F 63% 30.36 in 10.0 mi NNE 4.6 mph - N/A   Clear
3:35 AM 39.0 °F 36.8 °F 27.3 °F 63% 30.36 in 10.0 mi NNE 3.5 mph - N/A   Clear
3:55 AM 37.8 °F - 27.7 °F 67% 30.36 in 10.0 mi Calm Calm - N/A   Clear
4:15 AM 36.7 °F 34.1 °F 27.7 °F 70% 30.38 in 10.0 mi NNW 3.5 mph - N/A   Clear
4:35 AM 34.9 °F 30.8 °F 28.0 °F 76% 30.38 in 10.0 mi North 4.6 mph - N/A   Clear
4:55 AM 36.3 °F 33.7 °F 27.9 °F 71% 30.39 in 10.0 mi North 3.5 mph - N/A   Clear
5:15 AM 35.6 °F 31.7 °F 27.9 °F 73% 30.40 in 10.0 mi North 4.6 mph - N/A   Clear
5:35 AM 35.1 °F 31.0 °F 27.5 °F 74% 30.40 in 10.0 mi NNE 4.6 mph - N/A   Clear
5:55 AM 36.1 °F 33.5 °F 27.3 °F 70% 30.41 in 10.0 mi NNE 3.5 mph - N/A   Clear
6:15 AM 35.6 °F 31.7 °F 27.3 °F 72% 30.41 in 10.0 mi North 4.6 mph - N/A   Clear
6:35 AM 34.3 °F 31.4 °F 27.3 °F 76% 30.42 in 10.0 mi North 3.5 mph - N/A   Clear
6:55 AM 33.8 °F 29.6 °F 27.5 °F 78% 30.43 in 10.0 mi North 4.6 mph - N/A   Clear
7:15 AM 33.4 °F 29.1 °F 27.5 °F 79% 30.43 in 10.0 mi North 4.6 mph - N/A   Clear
7:35 AM 34.2 °F 31.2 °F 27.1 °F 75% 30.45 in 10.0 mi NNE 3.5 mph - N/A   Clear
7:55 AM 35.2 °F 32.4 °F 27.5 °F 73% 30.45 in 10.0 mi North 3.5 mph - N/A   Clear
8:15 AM 36.3 °F 31.6 °F 27.7 °F 71% 30.46 in 10.0 mi North 5.8 mph - N/A   Clear
8:35 AM 37.6 °F 33.1 °F 27.3 °F 66% 30.47 in 10.0 mi NNE 5.8 mph - N/A   Clear
8:55 AM 38.8 °F 33.2 °F 26.6 °F 61% 30.46 in 10.0 mi NNE 8.1 mph - N/A   Clear
9:15 AM 40.3 °F 34.9 °F 26.2 °F 57% 30.47 in 10.0 mi North 8.1 mph - N/A   Clear
9:35 AM 41.7 °F 37.3 °F 26.2 °F 54% 30.47 in 10.0 mi NNE 6.9 mph - N/A   Clear
9:55 AM 42.1 °F 37.7 °F 25.9 °F 53% 30.48 in 10.0 mi NNE 6.9 mph - N/A   Clear
10:15 AM 42.3 °F 37.9 °F 25.7 °F 52% 30.48 in 10.0 mi NNE 6.9 mph - N/A   Clear
10:35 AM 43.5 °F 39.4 °F 26.1 °F 50% 30.47 in 10.0 mi North 6.9 mph - N/A   Clear
10:55 AM 45.1 °F 43.7 °F 26.8 °F 49% 30.46 in 10.0 mi North 3.5 mph - N/A   Clear
11:15 AM 45.3 °F 43.0 °F 27.0 °F 49% 30.45 in 10.0 mi North 4.6 mph - N/A   Clear
11:35 AM 46.4 °F 45.2 °F 26.6 °F 46% 30.44 in 10.0 mi NE 3.5 mph - N/A   Clear
11:55 AM 47.7 °F - 26.4 °F 44% 30.43 in 10.0 mi Calm Calm - N/A   Clear
12:15 PM 47.7 °F - 26.4 °F 44% 30.42 in 10.0 mi ENE 3.5 mph - N/A   Clear
12:35 PM 47.8 °F - 26.8 °F 44% 30.41 in 10.0 mi NE 6.9 mph - N/A   Clear
12:55 PM 48.7 °F - 26.4 °F 42% 30.41 in 10.0 mi NE 3.5 mph - N/A   Clear
1:15 PM 49.5 °F - 25.9 °F 40% 30.40 in 10.0 mi ENE 6.9 mph - N/A   Clear
1:35 PM 51.1 °F - 25.5 °F 37% 30.39 in 10.0 mi East 8.1 mph - N/A   Clear
1:55 PM 50.7 °F - 24.3 °F 36% 30.38 in 10.0 mi North 3.5 mph - N/A   Clear
2:15 PM 51.1 °F - 25.0 °F 36% 30.38 in 10.0 mi ENE 4.6 mph - N/A   Clear
2:35 PM 51.4 °F - 25.5 °F 37% 30.38 in 10.0 mi Calm Calm - N/A   Clear
2:55 PM 51.6 °F - 26.1 °F 37% 30.38 in 10.0 mi East 6.9 mph - N/A   Clear
3:15 PM 51.3 °F - 26.2 °F 38% 30.38 in 10.0 mi East 4.6 mph - N/A   Clear
3:35 PM 50.9 °F - 26.1 °F 38% 30.39 in 10.0 mi East 5.8 mph - N/A   Clear
3:55 PM 51.1 °F - 27.1 °F 40% 30.38 in 10.0 mi ESE 4.6 mph - N/A   Clear
4:15 PM 50.0 °F - 27.0 °F 41% 30.38 in 10.0 mi ESE 5.8 mph - N/A   Clear
4:35 PM 49.3 °F - 27.3 °F 43% 30.39 in 10.0 mi East 3.5 mph - N/A   Clear
4:55 PM 47.8 °F - 28.2 °F 47% 30.39 in 10.0 mi East 3.5 mph - N/A   Clear
5:15 PM 45.0 °F - 30.4 °F 57% 30.40 in 10.0 mi Calm Calm - N/A   Clear
5:35 PM 41.2 °F 39.2 °F 31.8 °F 69% 30.40 in 10.0 mi ENE 3.5 mph - N/A   Clear
5:55 PM 37.4 °F 34.9 °F 30.9 °F 77% 30.41 in 10.0 mi NE 3.5 mph - N/A   Clear
6:15 PM 36.1 °F - 30.4 °F 80% 30.43 in 10.0 mi Calm Calm - N/A   Clear
6:35 PM 35.8 °F 33.0 °F 29.7 °F 78% 30.43 in 10.0 mi NE 3.5 mph - N/A   Clear
6:55 PM 35.8 °F 33.0 °F 29.5 °F 78% 30.44 in 10.0 mi NE 3.5 mph - N/A   Clear
7:15 PM 38.7 °F 36.3 °F 29.8 °F 71% 30.44 in 10.0 mi NE 3.5 mph - N/A   Clear
7:35 PM 39.0 °F 35.7 °F 29.8 °F 70% 30.44 in 10.0 mi NNE 4.6 mph - N/A   Clear
7:55 PM 34.2 °F - 29.3 °F 82% 30.45 in 10.0 mi Calm Calm - N/A   Clear
8:15 PM 37.0 °F 34.5 °F 30.2 °F 76% 30.46 in 10.0 mi North 3.5 mph - N/A   Clear
8:35 PM 35.4 °F 32.6 °F 30.4 °F 82% 30.47 in 10.0 mi North 3.5 mph - N/A   Scattered Clouds
8:55 PM 33.3 °F - 29.3 °F 85% 30.47 in 10.0 mi Calm Calm - N/A   Clear
9:15 PM 32.0 °F - 29.5 °F 90% 30.48 in 10.0 mi Calm Calm - N/A   Clear
9:35 PM 31.1 °F 27.7 °F 29.3 °F 93% 30.48 in 10.0 mi North 3.5 mph - N/A   Scattered Clouds
9:55 PM 35.1 °F 31.0 °F 31.5 °F 87% 30.49 in 10.0 mi North 4.6 mph - N/A   Mostly Cloudy
10:15 PM 35.8 °F 31.9 °F 30.7 °F 82% 30.49 in 10.0 mi North 4.6 mph - N/A   Overcast
10:35 PM 36.1 °F 32.3 °F 30.6 °F 80% 30.49 in 10.0 mi North 4.6 mph - N/A   Scattered Clouds
10:55 PM 36.5 °F 33.9 °F 30.7 °F 80% 30.50 in 10.0 mi North 3.5 mph - N/A   Scattered Clouds
11:15 PM 35.2 °F 32.4 °F 30.7 °F 84% 30.51 in 10.0 mi NNW 3.5 mph - N/A   Mostly Cloudy
11:35 PM 35.8 °F 33.0 °F 31.3 °F 84% 30.50 in 10.0 mi North 3.5 mph - N/A   Overcast
11:55 PM 36.7 °F - 30.9 °F 80% 30.51 in 10.0 mi Calm Calm - N/A   Mostly Cloudy